DW8453 Bekkjarvik NO current weather conditions

sailwx.info

Wind from 254 at 2 knots gusting 6

Air temperature 7.2° C
Dewpoint 4.0° C

Last reported at 2015-Mar-29 16:43 UTC.
Time now 2015-Mar-29 17:23 UTC

Location: N 60°01' E 005°12'.
View on Google Maps.

See reports from other nearby stations

  
Tides and Currents Weather Stations Pressure Air Temp Water Temp Dewpoint Dewpoint Depression Visibility Wind Speed Wind Dir Waves Ship Positions
date/time (UTC)wind fromknots sea level pressurealtimeterstation pressurevisibilityair tempwater tempwave heightnotes
2015-Mar-29 16:43 254 2 gusting 6 7.2
2015-Mar-29 16:33 237 6 gusting 6 7.2
2015-Mar-29 16:23 279 4 gusting 7 7.2
2015-Mar-29 16:13 255 4 gusting 7 7.8
2015-Mar-29 16:03 227 4 gusting 8 7.8
2015-Mar-29 15:53 265 4 gusting 8 7.8
2015-Mar-29 15:43 247 3 gusting 6 7.8
2015-Mar-29 15:33 256 5 gusting 7 8.3
2015-Mar-29 15:23 199 2 gusting 6 8.3
2015-Mar-29 15:13 267 2 gusting 6 7.8
2015-Mar-29 15:03 270 1 gusting 6 8.3
2015-Mar-29 14:53 265 3 gusting 5 8.3
2015-Mar-29 14:43 225 4 gusting 7 8.3
2015-Mar-29 14:33 225 6 gusting 8 8.3
2015-Mar-29 14:23 233 8 gusting 11 8.3
2015-Mar-29 14:13 235 6 gusting 12 8.3
2015-Mar-29 14:03 222 10 gusting 12 8.3
2015-Mar-29 13:53 265 2 gusting 7 8.3
2015-Mar-29 13:33 238 8 gusting 11 8.9
2015-Mar-29 13:23 188 5 gusting 10 8.9
2015-Mar-29 13:13 185 4 gusting 12 8.3
2015-Mar-29 13:03 238 8 gusting 10 8.3
2015-Mar-29 12:53 209 8 gusting 11 8.3
2015-Mar-29 12:43 226 7 gusting 10 7.8
2015-Mar-29 12:33 206 2 gusting 12 7.8
2015-Mar-29 12:23 206 8 gusting 12 7.8
2015-Mar-29 12:13 225 5 gusting 10 7.2
2015-Mar-29 12:03 205 10 gusting 15 7.8
2015-Mar-29 11:53 225 7 gusting 11 7.8
2015-Mar-29 11:43 194 8 gusting 11 7.8
2015-Mar-29 11:33 212 8 gusting 11 7.2
2015-Mar-29 11:23 198 5 gusting 6 7.2
2015-Mar-29 10:03 202 7 gusting 8 7.2
2015-Mar-29 09:53 254 4 gusting 11 7.2
2015-Mar-29 09:43 218 5 gusting 6 6.7
2015-Mar-29 09:33 225 6 gusting 6 6.7
2015-Mar-29 09:23 240 1 gusting 7 6.7
2015-Mar-29 09:13 225 6 gusting 7 6.7
2015-Mar-29 09:03 158 5 gusting 11 7.2
2015-Mar-29 08:53 213 2 gusting 10 7.2
2015-Mar-29 08:43 202 8 gusting 10 5.0
2015-Mar-29 00:03 180 10 gusting 19 5.0
2015-Mar-28 23:53 202 12 gusting 21 5.0
2015-Mar-28 23:43 167 17 gusting 24 5.0
2015-Mar-28 23:33 192 17 gusting 33 5.0
2015-Mar-28 23:23 194 24 gusting 31 5.0
2015-Mar-28 23:13 177 21 gusting 31 5.0
2015-Mar-28 23:03 201 20 gusting 31 5.0
2015-Mar-28 22:53 164 13 gusting 28 5.0
2015-Mar-28 22:43 196 12 gusting 25 5.0
2015-Mar-28 22:33 148 13 gusting 22 5.0
2015-Mar-28 22:23 184 14 gusting 21 5.0
2015-Mar-28 22:13 177 13 gusting 27 5.0
2015-Mar-28 22:03 173 18 gusting 26 5.0
2015-Mar-28 21:53 155 18 gusting 22 5.0
2015-Mar-28 21:43 161 16 gusting 21 5.0
2015-Mar-28 21:33 135 15 gusting 21 5.0
2015-Mar-28 21:23 147 14 gusting 20 5.0
2015-Mar-28 21:13 135 11 gusting 17 5.0
2015-Mar-28 21:03 150 15 gusting 26 5.0
2015-Mar-28 20:53 169 19 gusting 22 5.0
2015-Mar-28 20:43 170 15 gusting 24 4.4
2015-Mar-28 20:33 153 16 gusting 26 5.0
2015-Mar-28 20:23 144 18 gusting 26 4.4
2015-Mar-28 20:13 135 15 gusting 18 4.4
2015-Mar-28 20:03 163 19 gusting 25 4.4
2015-Mar-28 19:53 160 20 gusting 31 4.4
2015-Mar-28 19:43 148 17 gusting 32 4.4
2015-Mar-28 19:33 146 18 gusting 32 3.9
2015-Mar-28 19:23 160 20 gusting 26 3.9
2015-Mar-28 19:13 154 17 gusting 21 3.9
2015-Mar-28 19:03 158 15 gusting 21 3.9
2015-Mar-28 18:53 170 18 gusting 30 3.9
2015-Mar-28 18:43 158 14 gusting 19 3.9
2015-Mar-28 18:33 164 17 gusting 30 3.9
2015-Mar-28 18:23 159 14 gusting 24 3.9
2015-Mar-28 18:13 172 16 gusting 21 3.9
2015-Mar-28 18:03 141 12 gusting 21 3.9
2015-Mar-28 17:53 148 13 gusting 26 3.9
2015-Mar-28 17:43 174 19 gusting 22 3.9
2015-Mar-28 17:33 142 12 gusting 19 3.9
2015-Mar-28 17:23 175 14 gusting 19 3.9
2015-Mar-28 17:13 150 19 gusting 30 3.9
2015-Mar-28 17:03 142 15 gusting 32 3.9
2015-Mar-28 16:53 184 20 gusting 30 3.9
2015-Mar-28 16:43 158 18 gusting 19 4.4
2015-Mar-28 16:33 146 19 gusting 27 4.4
2015-Mar-28 16:23 152 18 gusting 25 4.4
2015-Mar-28 16:13 123 17 gusting 21 4.4
2015-Mar-28 16:03 135 19 gusting 28 4.4
2015-Mar-28 15:53 162 19 gusting 28 4.4
2015-Mar-28 15:43 149 13 gusting 27 4.4
2015-Mar-28 15:33 156 17 gusting 26 5.0
2015-Mar-28 15:23 175 19 gusting 19 5.0
2015-Mar-28 15:13 164 15 gusting 20 5.6
2015-Mar-28 15:03 158 18 gusting 22 5.6
2015-Mar-28 14:53 165 16 gusting 22 5.6
2015-Mar-28 14:43 158 22 gusting 31 6.1
2015-Mar-28 14:33 180 21 gusting 32 6.1
2015-Mar-28 14:23 170 26 gusting 32 6.7
2015-Mar-28 14:13 179 21 gusting 34 6.7
2015-Mar-28 14:03 199 19 gusting 30 6.7
2015-Mar-28 13:53 180 20 gusting 21 6.7
2015-Mar-28 13:43 142 17 gusting 26 7.2
2015-Mar-28 13:33 147 15 gusting 19 7.2
2015-Mar-28 13:23 174 14 gusting 22 7.2
2015-Mar-28 13:13 138 16 gusting 20 7.2
2015-Mar-28 13:03 136 14 gusting 18 7.2
2015-Mar-28 12:53 151 17 gusting 22 7.2
2015-Mar-28 12:43 158 16 gusting 22 7.2
2015-Mar-28 12:33 154 15 gusting 20 7.2
2015-Mar-28 12:23 158 15 gusting 21 7.2
2015-Mar-28 12:13 139 19 gusting 27 7.2
2015-Mar-28 12:03 179 20 gusting 26 7.2
2015-Mar-28 11:53 172 14 gusting 28 7.2
2015-Mar-28 11:43 144 14 gusting 20 7.2
2015-Mar-28 11:33 158 17 gusting 24 7.2
2015-Mar-28 11:23 180 25 gusting 26 7.8
2015-Mar-28 11:13 158 13 gusting 20 7.8
2015-Mar-28 11:03 157 15 gusting 26 7.8
2015-Mar-28 10:53 158 15 gusting 21 7.8
2015-Mar-28 10:43 193 13 gusting 19 7.8
2015-Mar-28 10:33 190 14 gusting 24 7.8
2015-Mar-28 10:23 196 12 gusting 19 7.2
2015-Mar-28 10:13 180 10 gusting 19 7.2
2015-Mar-28 10:03 201 13 gusting 15 7.2
2015-Mar-28 09:53 175 12 gusting 15 7.2
2015-Mar-28 09:43 158 13 gusting 15 7.2
2015-Mar-28 09:33 202 12 gusting 15 7.2
2015-Mar-28 09:23 151 12 gusting 19 7.2
2015-Mar-28 09:13 151 12 gusting 17 6.7
2015-Mar-28 09:03 179 12 gusting 19 6.7
2015-Mar-28 08:53 146 11 gusting 15 6.7
2015-Mar-28 08:43 168 14 gusting 14 6.7
2015-Mar-28 08:33 194 13 gusting 14 6.1
2015-Mar-28 08:23 192 12 gusting 17 6.1
2015-Mar-28 08:13 190 13 gusting 14 6.1
2015-Mar-28 08:03 222 8 gusting 18 6.1
2015-Mar-28 07:53 168 13 gusting 15 5.6
2015-Mar-28 07:43 180 13 gusting 19 5.6
2015-Mar-28 07:33 183 12 gusting 17 5.0
2015-Mar-28 07:23 140 11 gusting 15 5.0
2015-Mar-28 07:13 135 9 gusting 19 5.0
2015-Mar-28 07:03 156 9 gusting 14 5.0
2015-Mar-28 06:53 171 9 gusting 18 4.4
2015-Mar-28 06:43 158 11 gusting 13 4.4
2015-Mar-28 06:33 180 11 gusting 19 4.4
2015-Mar-28 06:23 180 11 gusting 15 4.4
2015-Mar-28 06:13 162 7 gusting 11 3.9
2015-Mar-28 06:03 135 6 gusting 15 3.9
2015-Mar-28 05:53 174 9 gusting 15 3.9
2015-Mar-28 05:43 173 9 gusting 13 3.9
2015-Mar-28 05:33 175 9 gusting 12 3.9
2015-Mar-28 05:23 154 10 gusting 13 3.9
2015-Mar-28 05:13 197 11 gusting 14 3.9
2015-Mar-28 05:03 159 8 gusting 11 3.9
2015-Mar-28 04:53 158 7 gusting 10 3.9
2015-Mar-28 04:43 190 7 gusting 13 3.9
2015-Mar-28 04:33 171 11 gusting 13 3.9
2015-Mar-28 04:23 180 11 gusting 13 3.9
2015-Mar-28 04:13 163 8 gusting 15 3.9
2015-Mar-28 04:03 202 10 gusting 15 3.9
2015-Mar-28 03:53 180 11 gusting 13 3.9
2015-Mar-28 03:43 180 11 gusting 13 3.9
2015-Mar-28 03:33 158 9 gusting 13 3.9
2015-Mar-28 03:23 176 6 gusting 11 3.9
2015-Mar-28 03:13 163 7 gusting 8 3.9
2015-Mar-28 03:03 199 6 gusting 12 3.9
2015-Mar-28 02:53 169 8 gusting 12 3.9
2015-Mar-28 02:43 180 7 gusting 12 3.9
2015-Mar-28 02:33 178 10 gusting 13 3.3
2015-Mar-28 02:23 158 6 gusting 10 3.3
2015-Mar-28 02:13 180 9 gusting 13 3.3
2015-Mar-28 02:03 202 7 gusting 12 3.3
2015-Mar-28 01:53 157 6 gusting 7 3.3
2015-Mar-28 01:43 170 7 gusting 12 2.8
2015-Mar-28 01:33 193 6 gusting 10 2.8
2015-Mar-28 01:23 175 6 gusting 8 2.8
2015-Mar-28 01:13 158 5 gusting 10 2.8
2015-Mar-28 01:03 160 6 gusting 10 2.8
2015-Mar-28 00:53 180 6 gusting 10 2.8
2015-Mar-28 00:43 170 6 gusting 8 2.8
2015-Mar-28 00:33 187 7 gusting 12 2.8
2015-Mar-28 00:23 199 5 gusting 11 2.8
2015-Mar-28 00:13 180 5 gusting 8 3.3
2015-Mar-28 00:03 138 7 gusting 10 3.3
2015-Mar-27 23:53 180 6 gusting 8 3.3
2015-Mar-27 23:43 163 5 gusting 11 3.3
2015-Mar-27 23:33 180 6 gusting 7 3.3
2015-Mar-27 23:23 180 6 gusting 7 3.3
2015-Mar-27 23:13 197 6 gusting 7 2.8
2015-Mar-27 23:03 181 6 gusting 7 2.8
2015-Mar-27 22:53 180 5 gusting 8 3.3
2015-Mar-27 22:43 182 6 gusting 8 3.3
2015-Mar-27 22:33 195 6 gusting 10 3.3
2015-Mar-27 22:23 180 7 gusting 8 3.3
2015-Mar-27 22:13 164 5 gusting 7 3.3
2015-Mar-27 22:03 181 7 gusting 11 3.3
2015-Mar-27 21:53 172 5 gusting 10 3.3
2015-Mar-27 21:43 180 5 gusting 7 3.3
2015-Mar-27 21:33 168 6 gusting 6 3.9
2015-Mar-27 21:23 180 5 gusting 8 3.9
2015-Mar-27 21:13 200 5 gusting 6 3.9
2015-Mar-27 21:03 201 4 gusting 6 3.9
2015-Mar-27 20:53 186 6 gusting 7 3.9
2015-Mar-27 20:43 202 7 gusting 7 3.9
2015-Mar-27 20:33 180 6 gusting 11 3.9
2015-Mar-27 20:23 197 6 gusting 12 3.9
2015-Mar-27 20:13 180 9 gusting 12 4.4
2015-Mar-27 20:03 181 8 gusting 10 4.4
2015-Mar-27 19:53 180 5 gusting 13 4.4
2015-Mar-27 19:43 187 8 gusting 13 4.4
2015-Mar-27 19:33 166 7 gusting 8 5.0
2015-Mar-27 19:23 192 6 gusting 11 4.4
2015-Mar-27 19:13 185 10 gusting 11 5.0
2015-Mar-27 19:03 202 9 gusting 11 5.0
2015-Mar-27 18:53 225 8 gusting 10 5.0
2015-Mar-27 18:43 158 3 gusting 11 5.0
2015-Mar-27 18:33 180 10 gusting 11 5.6
2015-Mar-27 18:23 195 5 gusting 12 5.6
2015-Mar-27 18:13 179 7 gusting 12 5.6
2015-Mar-27 18:03 178 6 gusting 7 5.6
2015-Mar-27 17:53 174 6 gusting 10 6.1
2015-Mar-27 17:43 184 5 gusting 10 6.1
2015-Mar-27 17:33 180 6 gusting 11 6.1
2015-Mar-27 17:23 158 6 gusting 10 6.1
2015-Mar-27 17:13 180 5 gusting 10 6.1
2015-Mar-27 17:03 181 6 gusting 7 6.1